Location: Boursonne
(49.2024°N, 3.0468°E)
Time: 00:22:18
(UTC+00:00)

SL-08 RB Rocket - Pass Details

Date: 03 March 2021
Orbit: 647 x 683 km, 97.8° (Epoch: 14 April)

Event Time Altitude Azimuth Distance (km) Brightness Sun altitude
Rises 18:50:52 0° 164° (SSE) 2,966 6.8 -13.3°
Reaches altitude 10° 18:53:03 10° 164° (SSE) 2,064 6.0 -13.6°
Maximum altitude 18:57:34 89° 77° (ENE) 669 3.7 -14.4°
Drops below altitude 10° 19:02:11 10° 347° (NNW) 2,103 6.5 -15.1°
Sets 19:04:26 0° 347° (NNW) 3,028 7.4 -15.5°
